Weather in Hardenberg

Netherlands     52°34′36″N   6°37′48″E
temp.,
°C
wind,
m/s
gust,
m/s
humid.,
%
clouds,
%
prec.,
mm/h
press.,
hPa
HPBL,
m
7 may, fri
fri723:00+4n23857 0.2 100637
02:00+2nw11935 0.3 100718
05:00+1wnw2395100 0.0 100865
08:00+4w368439 0.0 1010299
11:00+9wnw565783 0.1 10121683
14:00+11wnw784663 0.2 10142147
17:00+11wnw79475 0.0 10151977
20:00+8w58653 0.0 1017693
8 may, sat
sat823:00+4w36843 0.0 1018118
02:00+3wsw22915 0.0 101834
05:00+2s358242 0.0 101782
08:00+5s4669100 0.0 1017199
11:00+11s685998 0.0 1016707
14:00+13s71054100 0.0 10131508
17:00+10sse61279100 1.1 1011750
20:00+10sse71790100 4.3 1008648
9 may, sun
sun923:00+11ssw7188873 0.1 1007519
02:00+11ssw716915 0.2 1007392
05:00+11s51493100 0.0 1005282
08:00+13sse51185100 0.0 1004255
11:00+18s61171100 0.1 1004536
14:00+21s71060100 0.4 10031044
17:00+23s7126252 0.0 10011393
20:00+20s4107680 0.0 1000283
10 may, mon
mon1023:00+19s71671100 0.4 1000493
02:00+16s51292100 0.9 1001408
05:00+15ssw61390100 0.1 1001634
08:00+14s61495100 2.6 10021025
11:00+13wsw71289100 2.3 1006862
14:00+17sw7959100 2.4 10081806
17:00+17wsw5666100 0.1 10081302
20:00+14wsw3676100 0.2 1009206
11 may, tue
tue1123:00+13nnw2278100 0.0 101041
02:00+12e2387100 0.1 101163
05:00+11ese129630 0.4 101020
08:00+12se3694100 1.4 1011276
11:00+12ese3793100 0.6 1010362
14:00+14e467999 0.7 1010660
17:00+17e676399 0.1 10091508
20:00+14e6981100 0.2 1008575